Location: Bothwell
(42.3833°S, 147.0000°E)
Time: 21:28:35
(UTC+10:00)

CUTE 1.7 + AOD 2 - Pass Details

Date: 05 February 2023
Orbit: 584 x 601 km, 97.7° (Epoch: 02 April)

Event Time Altitude Azimuth Distance (km) Brightness Sun altitude
Exits shadow 03:28:45 27° 64° (ENE) 1,168 ? -25.0°
Maximum altitude 03:30:22 37° 109° (ESE) 933 ? -24.8°
Drops below altitude 10° 03:34:16 10° 176° (S) 1,951 ? -24.4°
Sets 03:36:34 0° 184° (S) 2,864 ? -24.2°
